44.7°F
Current conditions from King Hill
Updated every 5 minutes
 
  Thursday October 30, 2014

Station Historical Data
Daily Summary for March 29, 2012 Units:  Metric    English   Both
« Previous Day
Next Day »
Daily Weekly Monthly Yearly Custom
  High: Low: Average:
Temperature: 1.5 °C -1.1 °C 0.2 °C
Dew Point: -0.1 °C -4.7 °C -1.7 °C
Humidity: 94% 70% 87%
Wind Speed: 11.3km/h 1.6km/h 4km/h
Wind Gust: 29km/h - -
Wind- - WNW
Pressure: 1014.1 hPa 1001.6 hPa -
Precipitation: 0.5 mm    
Historical Graphs
 
 
Tabular Data for March 29, 2012
Time Temperature Dew Point Pressure Wind Wind Speed Wind Gust Humidity Daily Rainfall
00:04 1.3 °C -0.1 °C 1001.6 hPa NW 8 km/h 16.1 km/h 90% 0 mm
00:09 1.3 °C -0.1 °C 1001.9 hPa NNW 4.8 km/h 16.1 km/h 91% 0 mm
00:14 1.2 °C -0.1 °C 1001.9 hPa NW 1.6 km/h 14.5 km/h 91% 0 mm
00:19 1.2 °C -0.1 °C 1001.9 hPa WNW 4.8 km/h 11.3 km/h 91% 0 mm
00:24 1.2 °C -0.1 °C 1001.9 hPa NW 6.4 km/h 16.1 km/h 91% 0 mm
00:29 1.2 °C -0.1 °C 1001.9 hPa NNW 1.6 km/h 16.1 km/h 91% 0 mm
00:34 1.1 °C -0.1 °C 1001.9 hPa NNW 1.6 km/h 14.5 km/h 92% 0 mm
00:39 1.1 °C -0.1 °C 1001.9 hPa NW 4.8 km/h 14.5 km/h 92% 0 mm
00:44 1 °C -0.2 °C 1002.3 hPa NW 8 km/h 12.9 km/h 92% 0 mm
00:49 1 °C -0.2 °C 1002.3 hPa WNW 6.4 km/h 12.9 km/h 92% 0 mm
00:54 1 °C -0.2 °C 1002.3 hPa NNW 1.6 km/h 11.3 km/h 92% 0 mm
00:59 0.9 °C -0.1 °C 1002.3 hPa NNW 8 km/h 16.1 km/h 93% 0 mm
01:04 0.9 °C -0.1 °C 1002.3 hPa NNW 3.2 km/h 16.1 km/h 93% 0 mm
01:09 0.9 °C -0.1 °C 1002.6 hPa NW 3.2 km/h 12.9 km/h 93% 0 mm
01:14 0.9 °C -0.1 °C 1002.6 hPa NNW 9.7 km/h 19.3 km/h 93% 0 mm
01:19 0.9 °C -0.1 °C 1002.6 hPa North 3.2 km/h 19.3 km/h 93% 0 mm
01:24 0.9 °C -0.1 °C 1002.6 hPa NW 4.8 km/h 14.5 km/h 93% 0 mm
01:29 0.8 °C -0.2 °C 1002.6 hPa NNW 6.4 km/h 17.7 km/h 93% 0 mm
01:39 0.8 °C -0.2 °C 1002.6 hPa NNW 3.2 km/h 17.7 km/h 93% 0 mm
01:44 0.8 °C -0.2 °C 1002.6 hPa NW 6.4 km/h 14.5 km/h 93% 0 mm
01:54 0.7 °C -0.3 °C 1002.9 hPa NW 4.8 km/h 16.1 km/h 93% 0 mm
01:59 0.7 °C -0.3 °C 1002.9 hPa NNW 3.2 km/h 14.5 km/h 93% 0 mm
02:04 0.7 °C -0.3 °C 1002.9 hPa NNW 3.2 km/h 14.5 km/h 93% 0 mm
02:09 0.7 °C -0.2 °C 1002.9 hPa NW 4.8 km/h 11.3 km/h 94% 0 mm
02:14 0.7 °C -0.2 °C 1002.9 hPa NNW 4.8 km/h 12.9 km/h 94% 0 mm
02:19 0.6 °C -0.2 °C 1002.9 hPa NNW 4.8 km/h 16.1 km/h 94% 0 mm
02:24 0.6 °C -0.2 °C 1002.9 hPa North 1.6 km/h 16.1 km/h 94% 0 mm
02:29 0.6 °C -0.3 °C 1002.9 hPa North 1.6 km/h 6.4 km/h 94% 0 mm
02:34 0.6 °C -0.4 °C 1002.9 hPa NW 4.8 km/h 14.5 km/h 93% 0 mm
02:39 0.5 °C -0.5 °C 1002.9 hPa NNW 4.8 km/h 16.1 km/h 93% 0 mm
02:44 0.5 °C -0.3 °C 1002.9 hPa NW 6.4 km/h 19.3 km/h 94% 0 mm
02:49 0.4 °C -0.4 °C 1003.3 hPa NW 8 km/h 22.5 km/h 94% 0 mm
02:54 0.4 °C -0.4 °C 1003.3 hPa NW 1.6 km/h 22.5 km/h 94% 0 mm
02:59 0.4 °C -0.4 °C 1003.3 hPa NNW 3.2 km/h 8 km/h 94% 0 mm
03:04 0.4 °C -0.4 °C 1002.9 hPa Calm   8 km/h 94% 0 mm
03:09 0.4 °C -0.4 °C 1003.3 hPa North 1.6 km/h 9.7 km/h 94% 0 mm
03:14 0.4 °C -0.4 °C 1003.3 hPa NNW 3.2 km/h 14.5 km/h 94% 0 mm
03:19 0.3 °C -0.5 °C 1003.3 hPa Calm   14.5 km/h 94% 0 mm
03:24 0.3 °C -0.5 °C 1003.3 hPa NNW 4.8 km/h 14.5 km/h 94% 0 mm
03:29 0.3 °C -0.6 °C 1003.3 hPa NNW 3.2 km/h 14.5 km/h 94% 0 mm
03:39 0.2 °C -0.6 °C 1003.3 hPa NW 3.2 km/h 17.7 km/h 94% 0 mm
03:44 0.2 °C -0.7 °C 1003.3 hPa NNW 11.3 km/h 20.9 km/h 94% 0 mm
03:49 0.1 °C -0.7 °C 1003.3 hPa North 4.8 km/h 20.9 km/h 94% 0 mm
03:54 0.1 °C -0.8 °C 1003.6 hPa NNW 3.2 km/h 11.3 km/h 94% 0 mm
03:59 -0.1 °C -0.9 °C 1003.6 hPa North 1.6 km/h 14.5 km/h 94% 0 mm
04:04 -0.1 °C -0.9 °C 1003.6 hPa Calm   14.5 km/h 94% 0 mm
04:09 -0.1 °C -0.9 °C 1003.6 hPa Calm   6.4 km/h 94% 0 mm
04:14 -0.1 °C -0.9 °C 1003.6 hPa Calm   9.7 km/h 94% 0 mm
04:19 -0.1 °C -0.9 °C 1003.6 hPa NNW 4.8 km/h 12.9 km/h 94% 0 mm
04:29 -0.1 °C -0.9 °C 1003.9 hPa NW 1.6 km/h 6.4 km/h 94% 0 mm
04:34 -0.1 °C -0.9 °C 1003.9 hPa NNW 4.8 km/h 8 km/h 94% 0 mm
04:39 -0.2 °C -1.1 °C 1003.9 hPa NNW 1.6 km/h 11.3 km/h 94% 0 mm
04:44 -0.2 °C -1.1 °C 1003.9 hPa Calm   11.3 km/h 94% 0 mm
04:49 -0.3 °C -1.1 °C 1003.9 hPa NNW 3.2 km/h 11.3 km/h 94% 0 mm
04:54 -0.3 °C -1.2 °C 1004.3 hPa NNW 3.2 km/h 11.3 km/h 94% 0 mm
04:59 -0.4 °C -1.2 °C 1004.3 hPa Calm   8 km/h 94% 0 mm
05:04 -0.4 °C -1.3 °C 1004.3 hPa NNW 4.8 km/h 9.7 km/h 94% 0 mm
05:09 -0.5 °C -1.3 °C 1004.3 hPa North 1.6 km/h 16.1 km/h 94% 0 mm
05:14 -0.6 °C -1.4 °C 1004.3 hPa North 1.6 km/h 16.1 km/h 94% 0 mm
05:19 -0.6 °C -1.4 °C 1004.3 hPa North 1.6 km/h 12.9 km/h 94% 0 mm
05:24 -0.7 °C -1.5 °C 1004.6 hPa North 4.8 km/h 14.5 km/h 94% 0 mm
05:29 -0.7 °C -1.6 °C 1004.6 hPa NNW 1.6 km/h 17.7 km/h 94% 0 mm
05:34 -0.8 °C -1.6 °C 1004.6 hPa Calm   17.7 km/h 94% 0 mm
05:44 -0.8 °C -1.6 °C 1004.6 hPa Calm   11.3 km/h 94% 0 mm
05:49 -0.8 °C -1.7 °C 1005 hPa North 3.2 km/h 16.1 km/h 94% 0 mm
05:54 -0.8 °C -1.7 °C 1005 hPa North 3.2 km/h 17.7 km/h 94% 0 mm
05:59 -0.8 °C -1.7 °C 1005 hPa North 3.2 km/h 17.7 km/h 94% 0 mm
06:04 -0.8 °C -1.7 °C 1005 hPa Calm   9.7 km/h 94% 0 mm
06:09 -0.9 °C -1.7 °C 1005 hPa NNE 1.6 km/h 9.7 km/h 94% 0 mm
06:19 -0.9 °C -1.8 °C 1005.3 hPa Calm   11.3 km/h 94% 0 mm
06:24 -1 °C -1.8 °C 1005.3 hPa Calm   8 km/h 94% 0 mm
06:29 -1 °C -1.8 °C 1005.3 hPa North 1.6 km/h 11.3 km/h 94% 0 mm
06:34 -1 °C -1.8 °C 1005.3 hPa Calm   11.3 km/h 94% 0 mm
06:39 -1 °C -1.8 °C 1005.6 hPa Calm   8 km/h 94% 0 mm
06:44 -1 °C -1.8 °C 1005.6 hPa North 1.6 km/h 16.1 km/h 94% 0 mm
06:49 -1 °C -1.8 °C 1005.6 hPa NNW 1.6 km/h 16.1 km/h 94% 0 mm
06:54 -1 °C -1.8 °C 1005.6 hPa Calm   8 km/h 94% 0 mm
06:59 -1 °C -1.8 °C 1006 hPa Calm   8 km/h 94% 0 mm
07:05 -1 °C -1.8 °C 1006 hPa Calm   12.9 km/h 94% 0 mm
07:14 -0.9 °C -1.8 °C 1006.3 hPa Calm   9.7 km/h 94% 0 mm
07:19 -0.9 °C -1.7 °C 1006.3 hPa Calm   4.8 km/h 94% 0 mm
07:24 -0.9 °C -1.8 °C 1006.3 hPa Calm   12.9 km/h 94% 0 mm
07:34 -1 °C -1.8 °C 1006.7 hPa Calm   8 km/h 94% 0 mm
07:40 -1 °C -1.8 °C 1006.7 hPa Calm   8 km/h 94% 0 mm
07:49 -1 °C -1.8 °C 1006.7 hPa Calm   9.7 km/h 94% 0 mm
07:55 -1 °C -1.8 °C 1007 hPa NNE 3.2 km/h 11.3 km/h 94% 0 mm
08:04 -1 °C -1.8 °C 1007 hPa North 1.6 km/h 11.3 km/h 94% 0 mm
08:09 -1 °C -1.8 °C 1007 hPa Calm   11.3 km/h 94% 0 mm
08:14 -1.1 °C -1.9 °C 1007 hPa NNE 3.2 km/h 12.9 km/h 94% 0 mm
08:19 -1.1 °C -1.9 °C 1007.3 hPa Calm   14.5 km/h 94% 0 mm
08:24 -1.1 °C -1.9 °C 1007.3 hPa North 3.2 km/h 14.5 km/h 94% 0 mm
08:29 -1.1 °C -1.9 °C 1007.3 hPa NNE 3.2 km/h 16.1 km/h 94% 0 mm
08:34 -1.1 °C -1.9 °C 1007.3 hPa Calm   16.1 km/h 94% 0 mm
08:44 -1 °C -2 °C 1007.3 hPa North 1.6 km/h 11.3 km/h 93% 0 mm
08:50 -1 °C -2 °C 1007.3 hPa North 3.2 km/h 12.9 km/h 93% 0 mm
08:59 -0.9 °C -1.9 °C 1007.7 hPa North 1.6 km/h 12.9 km/h 93% 0 mm
09:05 -0.9 °C -1.9 °C 1007.7 hPa Calm   9.7 km/h 93% 0 mm
09:14 -0.9 °C -1.9 °C 1007.7 hPa NNW 3.2 km/h 11.3 km/h 93% 0 mm
09:19 -0.8 °C -1.9 °C 1008 hPa NNE 1.6 km/h 14.5 km/h 92% 0 mm
09:24 -0.8 °C -1.9 °C 1008 hPa North 1.6 km/h 14.5 km/h 92% 0 mm
09:29 -0.8 °C -1.9 °C 1008 hPa North 1.6 km/h 9.7 km/h 92% 0 mm
09:34 -0.8 °C -1.9 °C 1008.4 hPa Calm   9.7 km/h 92% 0 mm
09:39 -0.8 °C -1.9 °C 1008.4 hPa NNE 1.6 km/h 8 km/h 92% 0 mm
09:45 -0.8 °C -1.9 °C 1008.4 hPa North 1.6 km/h 8 km/h 92% 0 mm
09:54 -0.7 °C -1.8 °C 1008.4 hPa NNW 4.8 km/h 11.3 km/h 92% 0 mm
09:59 -0.7 °C -1.9 °C 1008.4 hPa NNW 4.8 km/h 11.3 km/h 91% 0 mm
10:04 -0.7 °C -2.1 °C 1008.4 hPa NNE 3.2 km/h 11.3 km/h 90% 0 mm
10:09 -0.6 °C -2.1 °C 1008.4 hPa North 3.2 km/h 11.3 km/h 90% 0 mm
10:14 -0.6 °C -2 °C 1008.7 hPa NNE 3.2 km/h 6.4 km/h 90% 0 mm
10:19 -0.5 °C -1.9 °C 1008.7 hPa Calm   6.4 km/h 90% 0 mm
10:24 -0.4 °C -2 °C 1008.7 hPa NNE 1.6 km/h 8 km/h 89% 0 mm
10:29 -0.3 °C -1.8 °C 1008.7 hPa NNW 3.2 km/h 8 km/h 90% 0 mm
10:34 -0.3 °C -1.9 °C 1008.7 hPa Calm   6.4 km/h 89% 0 mm
10:39 -0.3 °C -1.9 °C 1008.7 hPa NNW 1.6 km/h 4.8 km/h 89% 0 mm
10:44 -0.2 °C -1.8 °C 1009 hPa NW 3.2 km/h 8 km/h 89% 0 mm
10:50 -0.1 °C -1.7 °C 1009 hPa NNW 1.6 km/h 8 km/h 89% 0 mm
10:59 0.1 °C -1.7 °C 1009 hPa NNW 3.2 km/h 12.9 km/h 88% 0 mm
11:04 0.2 °C -1.6 °C 1009 hPa NNW 3.2 km/h 12.9 km/h 88% 0 mm
11:09 0.3 °C -1.5 °C 1009 hPa Calm   11.3 km/h 88% 0 mm
11:14 0.4 °C -1.4 °C 1009 hPa North 4.8 km/h 12.9 km/h 88% 0.3 mm
11:19 0.4 °C -1.4 °C 1009 hPa NNW 1.6 km/h 12.9 km/h 88% 0.3 mm
11:24 0.3 °C -1.6 °C 1009 hPa North 6.4 km/h 14.5 km/h 87% 0.3 mm
11:29 0.4 °C -1.5 °C 1009 hPa Calm   14.5 km/h 87% 0.3 mm
11:34 0.4 °C -1.4 °C 1009.4 hPa North 3.2 km/h 9.7 km/h 87% 0.3 mm
11:39 0.4 °C -1.5 °C 1009.4 hPa NNW 1.6 km/h 9.7 km/h 87% 0.3 mm
11:44 0.3 °C -1.6 °C 1009.4 hPa NNW 4.8 km/h 11.3 km/h 87% 0.3 mm
11:49 0.2 °C -1.8 °C 1009.4 hPa NNW 1.6 km/h 12.9 km/h 86% 0.3 mm
11:54 0.2 °C -1.7 °C 1009.4 hPa Calm   12.9 km/h 87% 0.3 mm
11:59 0.2 °C -1.7 °C 1009.4 hPa NNW 1.6 km/h 4.8 km/h 87% 0.3 mm
12:04 0.2 °C -1.7 °C 1009.4 hPa NW 1.6 km/h 8 km/h 87% 0.3 mm
12:09 0.2 °C -1.7 °C 1009.7 hPa NNW 3.2 km/h 9.7 km/h 87% 0.3 mm
12:14 0.2 °C -1.7 °C 1009.7 hPa NNW 3.2 km/h 11.3 km/h 87% 0.3 mm
12:19 0.1 °C -1.7 °C 1009.7 hPa Calm   11.3 km/h 88% 0.3 mm
12:24 0.2 °C -1.6 °C 1009.7 hPa NNW 1.6 km/h 8 km/h 88% 0.3 mm
12:29 0.3 °C -1.4 °C 1009.7 hPa NNW 1.6 km/h 8 km/h 88% 0.3 mm
12:34 0.3 °C -1.4 °C 1009.7 hPa NNW 1.6 km/h 9.7 km/h 88% 0.3 mm
12:39 0.3 °C -1.4 °C 1009.7 hPa NNW 3.2 km/h 9.7 km/h 88% 0.3 mm
12:44 0.3 °C -1.6 °C 1009.7 hPa North 3.2 km/h 8 km/h 87% 0.5 mm
12:49 0.4 °C -1.5 °C 1010 hPa North 1.6 km/h 11.3 km/h 87% 0.5 mm
12:54 0.4 °C -1.5 °C 1009.7 hPa NW 3.2 km/h 11.3 km/h 87% 0.5 mm
12:59 0.4 °C -1.4 °C 1010 hPa North 1.6 km/h 9.7 km/h 87% 0.5 mm
13:04 0.5 °C -1.4 °C 1010 hPa NE 1.6 km/h 8 km/h 87% 0.5 mm
13:09 0.4 °C -1.6 °C 1010 hPa Calm   9.7 km/h 86% 0.5 mm
13:14 0.5 °C -1.6 °C 1010 hPa NW 4.8 km/h 12.9 km/h 86% 0.5 mm
13:19 0.5 °C -1.6 °C 1010 hPa NNW 3.2 km/h 12.9 km/h 86% 0.5 mm
13:24 0.6 °C -1.5 °C 1010 hPa Calm   11.3 km/h 86% 0.5 mm
13:29 0.6 °C -1.5 °C 1010 hPa Calm   6.4 km/h 86% 0.5 mm
13:34 0.6 °C -1.4 °C 1010 hPa Calm   11.3 km/h 86% 0.5 mm
13:44 0.7 °C -1.6 °C 1010 hPa NNW 3.2 km/h 9.7 km/h 85% 0.5 mm
13:49 0.7 °C -1.5 °C 1010 hPa Calm   9.7 km/h 85% 0.5 mm
13:54 0.7 °C -1.5 °C 1010 hPa North 1.6 km/h 9.7 km/h 85% 0.5 mm
13:59 0.8 °C -1.6 °C 1010 hPa NNE 1.6 km/h 8 km/h 84% 0.5 mm
14:04 0.8 °C -1.6 °C 1010 hPa NE 1.6 km/h 11.3 km/h 84% 0.5 mm
14:09 0.9 °C -1.5 °C 1010 hPa North 1.6 km/h 11.3 km/h 84% 0.5 mm
14:14 0.9 °C -1.7 °C 1010 hPa NNW 4.8 km/h 9.7 km/h 83% 0.5 mm
14:19 0.9 °C -1.7 °C 1010 hPa NW 3.2 km/h 9.7 km/h 83% 0.5 mm
14:24 1 °C -1.6 °C 1010 hPa Calm   8 km/h 83% 0.5 mm
14:29 1.1 °C -1.4 °C 1010 hPa Calm   4.8 km/h 83% 0.5 mm
14:34 1.2 °C -1.4 °C 1010 hPa WNW 6.4 km/h 9.7 km/h 83% 0.5 mm
14:40 1.2 °C -1.6 °C 1010 hPa NW 6.4 km/h 12.9 km/h 82% 0.5 mm
14:45 1.2 °C -1.6 °C 1010 hPa Calm   12.9 km/h 82% 0.5 mm
14:50 1.3 °C -1.4 °C 1010 hPa NW 6.4 km/h 9.7 km/h 82% 0.5 mm
14:55 1.3 °C -1.6 °C 1010 hPa NW 4.8 km/h 9.7 km/h 81% 0.5 mm
15:04 1.3 °C -1.4 °C 1010 hPa NNW 4.8 km/h 9.7 km/h 82% 0.5 mm
15:10 1.3 °C -1.4 °C 1010.4 hPa Calm   8 km/h 82% 0.5 mm
15:15 1.3 °C -1.4 °C 1010.4 hPa NW 1.6 km/h 8 km/h 82% 0.5 mm
15:20 1.4 °C -1.4 °C 1010.4 hPa NNW 3.2 km/h 8 km/h 81% 0.5 mm
15:29 1.4 °C -1.5 °C 1010.4 hPa NNW 3.2 km/h 12.9 km/h 81% 0.5 mm
15:34 1.4 °C -1.6 °C 1010.4 hPa NW 3.2 km/h 12.9 km/h 80% 0.5 mm
15:39 1.5 °C -1.6 °C 1010.4 hPa Calm   9.7 km/h 80% 0.5 mm
15:44 1.4 °C -1.6 °C 1010.4 hPa NW 1.6 km/h 8 km/h 80% 0.5 mm
15:49 1.4 °C -1.6 °C 1010.4 hPa Calm   8 km/h 80% 0.5 mm
16:00 1.3 °C -1.7 °C 1010.7 hPa NW 1.6 km/h 4.8 km/h 80% 0.5 mm
16:10 1.2 °C -1.9 °C 1010.4 hPa WNW 4.8 km/h 9.7 km/h 80% 0.5 mm
16:19 1 °C -1.9 °C 1010.7 hPa WNW 4.8 km/h 8 km/h 81% 0.5 mm
16:24 0.9 °C -1.9 °C 1010.7 hPa NW 3.2 km/h 8 km/h 81% 0.5 mm
16:29 0.9 °C -1.8 °C 1010.7 hPa NW 1.6 km/h 8 km/h 82% 0.5 mm
16:34 0.9 °C -1.7 °C 1010.7 hPa Calm   6.4 km/h 83% 0.5 mm
16:40 0.8 °C -1.7 °C 1010.7 hPa NW 3.2 km/h 8 km/h 83% 0.5 mm
16:44 0.8 °C -1.7 °C 1011.1 hPa NNW 3.2 km/h 8 km/h 83% 0.5 mm
16:49 0.8 °C -1.8 °C 1011.1 hPa West 4.8 km/h 8 km/h 83% 0.5 mm
16:54 0.8 °C -1.8 °C 1011.1 hPa WNW 3.2 km/h 8 km/h 83% 0.5 mm
16:59 0.8 °C -1.6 °C 1011.1 hPa WNW 1.6 km/h 8 km/h 84% 0.5 mm
17:04 0.8 °C -1.6 °C 1011.1 hPa NW 3.2 km/h 6.4 km/h 84% 0.5 mm
17:09 0.8 °C -1.6 °C 1011.4 hPa NW 4.8 km/h 12.9 km/h 84% 0.5 mm
17:14 0.7 °C -1.7 °C 1011.4 hPa NNW 8 km/h 12.9 km/h 84% 0.5 mm
17:19 0.7 °C -1.7 °C 1011.4 hPa NW 6.4 km/h 12.9 km/h 84% 0.5 mm
17:24 0.7 °C -1.6 °C 1011.4 hPa NW 4.8 km/h 11.3 km/h 85% 0.5 mm
17:29 0.6 °C -1.6 °C 1011.4 hPa NW 3.2 km/h 11.3 km/h 85% 0.5 mm
17:34 0.6 °C -1.4 °C 1011.4 hPa NNW 4.8 km/h 11.3 km/h 86% 0.5 mm
17:39 0.6 °C -1.5 °C 1011.7 hPa NW 6.4 km/h 17.7 km/h 86% 0.5 mm
17:44 0.6 °C -1.5 °C 1011.7 hPa NNW 4.8 km/h 17.7 km/h 86% 0.5 mm
17:49 0.6 °C -0.6 °C 1011.7 hPa NNW 4.8 km/h 16.1 km/h 92% 0.5 mm
17:54 0.6 °C -0.6 °C 1011.7 hPa NW 4.8 km/h 16.1 km/h 92% 0.5 mm
17:59 0.6 °C -1.4 °C 1011.7 hPa NW 1.6 km/h 14.5 km/h 86% 0.5 mm
18:04 0.6 °C -1.4 °C 1011.7 hPa NNW 1.6 km/h 12.9 km/h 86% 0.5 mm
18:09 0.6 °C -1.4 °C 1011.7 hPa NNW 3.2 km/h 11.3 km/h 86% 0.5 mm
18:14 0.6 °C -1.5 °C 1011.7 hPa NW 1.6 km/h 12.9 km/h 86% 0.5 mm
18:19 0.6 °C -1.5 °C 1011.7 hPa NNW 4.8 km/h 12.9 km/h 86% 0.5 mm
18:24 0.6 °C -1.5 °C 1012.1 hPa NNW 3.2 km/h 9.7 km/h 86% 0.5 mm
18:29 0.6 °C -1.5 °C 1012.1 hPa NW 3.2 km/h 11.3 km/h 86% 0.5 mm
18:34 0.5 °C -1.6 °C 1012.1 hPa Calm   11.3 km/h 86% 0.5 mm
18:39 0.5 °C -1.6 °C 1012.1 hPa NW 1.6 km/h 9.7 km/h 86% 0.5 mm
18:44 0.4 °C -1.6 °C 1012.1 hPa NW 3.2 km/h 12.9 km/h 86% 0.5 mm
18:49 0.4 °C -1.6 °C 1012.1 hPa NNW 6.4 km/h 14.5 km/h 86% 0.5 mm
18:54 0.4 °C -1.7 °C 1012.4 hPa NNW 6.4 km/h 14.5 km/h 86% 0.5 mm
18:59 0.4 °C -1.7 °C 1012.4 hPa NW 8 km/h 14.5 km/h 86% 0.5 mm
19:04 0.3 °C -1.7 °C 1012.4 hPa NW 4.8 km/h 14.5 km/h 86% 0.5 mm
19:09 0.3 °C -1.7 °C 1012.4 hPa Calm   9.7 km/h 86% 0.5 mm
19:14 0.3 °C -1.8 °C 1012.4 hPa NNW 1.6 km/h 8 km/h 86% 0.5 mm
19:19 0.2 °C -1.8 °C 1012.4 hPa NNW 1.6 km/h 8 km/h 86% 0.5 mm
19:24 0.2 °C -1.8 °C 1012.8 hPa NW 3.2 km/h 12.9 km/h 86% 0.5 mm
19:29 0.3 °C -1.9 °C 1012.8 hPa NNW 1.6 km/h 12.9 km/h 85% 0.5 mm
19:34 0.3 °C -1.9 °C 1012.8 hPa NW 3.2 km/h 9.7 km/h 85% 0.5 mm
19:39 0.3 °C -1.9 °C 1012.8 hPa Calm   12.9 km/h 85% 0.5 mm
19:44 0.3 °C -2.1 °C 1012.8 hPa Calm   12.9 km/h 84% 0.5 mm
19:49 0.4 °C -2.2 °C 1012.8 hPa NW 11.3 km/h 19.3 km/h 83% 0.5 mm
19:59 0.6 °C -2.4 °C 1013.1 hPa NNW 8 km/h 17.7 km/h 80% 0.5 mm
20:04 0.7 °C -2.4 °C 1013.1 hPa NW 3.2 km/h 17.7 km/h 80% 0.5 mm
20:09 0.7 °C -2.6 °C 1013.1 hPa NW 4.8 km/h 17.7 km/h 79% 0.5 mm
20:14 0.7 °C -2.6 °C 1013.1 hPa NNW 1.6 km/h 12.9 km/h 79% 0.5 mm
20:19 0.7 °C -2.6 °C 1013.1 hPa NNW 1.6 km/h 16.1 km/h 79% 0.5 mm
20:24 0.7 °C -2.6 °C 1013.1 hPa NNW 3.2 km/h 16.1 km/h 79% 0.5 mm
20:29 0.6 °C -2.6 °C 1013.1 hPa NNW 3.2 km/h 9.7 km/h 79% 0.5 mm
20:39 0.6 °C -2.7 °C 1013.1 hPa NNW 6.4 km/h 11.3 km/h 79% 0.5 mm
20:44 0.6 °C -2.7 °C 1013.1 hPa NW 1.6 km/h 11.3 km/h 79% 0.5 mm
20:49 0.5 °C -2.7 °C 1013.4 hPa WNW 1.6 km/h 8 km/h 79% 0.5 mm
20:59 0.5 °C -2.7 °C 1013.4 hPa NW 3.2 km/h 8 km/h 79% 0.5 mm
21:04 0.6 °C -2.7 °C 1013.1 hPa Calm   12.9 km/h 79% 0.5 mm
21:09 0.6 °C -2.7 °C 1013.4 hPa NW 3.2 km/h 12.9 km/h 79% 0.5 mm
21:19 0.6 °C -2.5 °C 1013.4 hPa NW 8 km/h 25.7 km/h 80% 0.5 mm
21:24 0.4 °C -2.4 °C 1013.4 hPa NW 9.7 km/h 25.7 km/h 81% 0.5 mm
21:29 0.3 °C -2.4 °C 1013.4 hPa NW 3.2 km/h 16.1 km/h 82% 0.5 mm
21:34 0.2 °C -2.5 °C 1013.4 hPa NW 8 km/h 14.5 km/h 82% 0.5 mm
21:39 0.1 °C -2.8 °C 1013.4 hPa NNW 9.7 km/h 24.1 km/h 81% 0.5 mm
21:44 -0.1 °C -2.8 °C 1013.4 hPa NW 6.4 km/h 24.1 km/h 82% 0.5 mm
21:49 -0.2 °C -2.7 °C 1013.4 hPa NW 6.4 km/h 22.5 km/h 83% 0.5 mm
21:54 -0.2 °C -2.8 °C 1013.4 hPa NW 8 km/h 20.9 km/h 83% 0.5 mm
21:59 -0.3 °C -2.9 °C 1013.4 hPa NW 3.2 km/h 14.5 km/h 83% 0.5 mm
22:04 -0.4 °C -2.9 °C 1013.4 hPa NW 3.2 km/h 12.9 km/h 83% 0.5 mm
22:09 -0.4 °C -2.9 °C 1013.4 hPa NNW 1.6 km/h 11.3 km/h 83% 0.5 mm
22:14 -0.3 °C -2.9 °C 1013.4 hPa NNW 1.6 km/h 11.3 km/h 83% 0.5 mm
22:19 -0.3 °C -3.1 °C 1013.4 hPa NW 6.4 km/h 11.3 km/h 82% 0.5 mm
22:24 -0.3 °C -3 °C 1013.4 hPa NW 3.2 km/h 11.3 km/h 82% 0.5 mm
22:29 -0.2 °C -3.1 °C 1013.4 hPa NNW 6.4 km/h 9.7 km/h 81% 0.5 mm
22:35 -0.1 °C -3.2 °C 1013.4 hPa NW 8 km/h 14.5 km/h 80% 0.5 mm
22:44 0.1 °C -3.3 °C 1013.4 hPa NNW 8 km/h 17.7 km/h 78% 0.5 mm
22:49 0.1 °C -3.4 °C 1013.8 hPa NNW 4.8 km/h 20.9 km/h 77% 0.5 mm
22:59 0.2 °C -3.7 °C 1013.8 hPa NNW 9.7 km/h 29 km/h 75% 0.5 mm
23:04 0.2 °C -3.9 °C 1013.8 hPa NW 3.2 km/h 22.5 km/h 74% 0.5 mm
23:09 0.2 °C -4.1 °C 1013.8 hPa NNW 6.4 km/h 19.3 km/h 73% 0.5 mm
23:14 0.2 °C -4.2 °C 1013.8 hPa NNW 11.3 km/h 24.1 km/h 72% 0.5 mm
23:19 0.2 °C -4.2 °C 1013.8 hPa NW 8 km/h 24.1 km/h 72% 0.5 mm
23:24 0.2 °C -4.4 °C 1013.8 hPa WNW 9.7 km/h 20.9 km/h 71% 0.5 mm
23:29 0.2 °C -4.4 °C 1013.8 hPa NW 4.8 km/h 25.7 km/h 71% 0.5 mm
23:34 0.2 °C -4.6 °C 1014.1 hPa NW 9.7 km/h 25.7 km/h 70% 0.5 mm
23:39 0.2 °C -4.6 °C 1014.1 hPa NW 6.4 km/h 17.7 km/h 70% 0.5 mm
23:44 0.2 °C -4.7 °C 1014.1 hPa NW 11.3 km/h 20.9 km/h 70% 0.5 mm
23:49 0.2 °C -4.7 °C 1013.8 hPa NNW 4.8 km/h 20.9 km/h 70% 0.5 mm
23:59 0.1 °C -4.5 °C 1014.1 hPa NW 6.4 km/h 16.1 km/h 71% 0.5 mm
Westford Weather
Compliments of Weather Underground

 
 
Current Radar Loop:

Copyright © WestfordWeather.net 2007-2014. All rights reserved.